Torna al catalogo

ARIANE 5 DEB

SYLDA

AttivoHEO
NORAD 45028·DEBRIS·🇫🇷 France

Lanciato Jan 16, 2020 da Guiana Space Centre

Loading…

Prossimi Passaggi (prossime 24 ore)

TLE

AggiornatoSource: Space-Track

Epoca: Sep 14, 2026, 11:30 UTC

1 45028U 20005C   26257.47948382  .00243647  00000-0  64076-2 0  9994
2 45028   6.1186  51.2990 4298142 179.8949 180.2564  6.96423658 92237

Traccia ARIANE 5 DEB in tempo reale con AllMySat

Download on the App Store